Probability
0 0 0 0 0 0 0 0 0 0 0 0 0 0 0 0 0 0 0 0 0 0 0 0 0 0 0 0 0 0 0 0 0 0 0 0 0 0 0 0 0 0 0 0
0 0 0 0 0 0 0 0 0 0 0 0 0 0 0 0 0 0 0 0 0 0 0 0 0 0 0 0 0 0 0 0 0 0 0 0 0 0 0 0 0 0 0 0
0 0 0 0 0 0 0 0 0 0 0 0 0 0 0 0 0 0 0 0 0 0 0 0 0 0 0 0 0 0 0 0 0 0 0 0 0 0 0 0 0 0 0 0
0 0 0 0 0 0 0 0 0 0 0 0 0 0 0 0 0 0 0 0 0 0 0 0 0 0 0 0 0 0 0 0 0 0 0 0 0 0 0 0 0 0 0 0
0 0 0 0 0 0 0 0 0 0 0 0 0 0 0 0 0 0 0 0 0 0 0 0 0 0 0 0 0 0 0 0 0 0 0 0 0 0 0 0 0 0 0 0
0 0 0 0 0 0 0 0 0 0 0 0 0 0 0 0 0 0 0 0 0 0 0 0 0 0 0 0 0 0 0 0 0 0 0 0 0 0 0 0 0 0 0 0
0 0 0 0 0 0 0 0 0 0 0 0 0 0 0 0 0 0 0 0 0 0 0 0 0 0 0 0 0 0 0 0 0 0 0 0 0 0 0 0 0 0 0 0
0 0 0 0 0 0 0 0 0 0 0 0 0 0 0 0 0 0 0 0 0 0 0 0 0 0 0 0 0 0 0 0 0 0 0 0 0 0 0 0 0 0 0 0
0 0 0 0 0 0 0 0 0 0 0 0 0 0 0 0 0 0 0 0 0 0 0 0 0 0 0 0 0 0 0 0 0 0 0 0 0 0 0 0 0 0 0 0
0 0 0 0 0 0 0 0 0 0 0 0 0 0 0 0 0 0 0 0 0 0 0 0 0 0 0 0 0 0 0 0 0 0 0 0 0 0 0 0 0 0 0 0
0 0 0 0 0 0 0 0 0 0 0 0 0 0 0 0 0 0 0 0 0 0 0 0 0 0 0 0 0 0 0 0 0 0 0 0 0 0 0 0 0 0 0 0
0 0 0 0 0 0 0 0 0 0 0 0 0 0 0 0 0 0 0 0 0 0 0 0 0 0 0 0 0 0 0 0 0 0 0 0 0 0 0 0 0 0 0 0
0 0 0 0 0 0 0 0 0 0 0 0 0 0 0 0 0 0 0 0 0 0 0 0 0 0 0 0 0 0 0 0 0 0 0 0 0 0 0 0 0 0 0 0
0 0 0 0 0 0 0 0 0 0 0 0 0 0 0 0 0 0 0 0 0 0 0 0 0 0 0 0 0 0 0 0 0 0 0 0 0 0 0 0 0 0 0 0
0 0 0 0 0 0 0 0 0 0 0 0 0 0 0 0 0 0 0 0 0 0 0 0 0 0 0 0 0 0 0 0 0 0 0 0 0 0 0 0 0 0 0 0
0 0 0 0 0 0 0 0 0 0 0 0 0 0 0 0 0 0 0 0 0 0 0 0 0 0 0 0 0 0 0 0 0 0 0 0 0 0 0 0 0 0 0 0
0 0 0 0 0 0 0 0 0 0 0 0 0 0 0 0 0 0 0 0 0 0 0 0 0 0 0 0 0 0 0 0 0 0 0 0 0 0 0 0 0 0 0 0
0 0 0 0 0 0 0 0 0 0 0 0 0 0 0 0 0 0 0 0 0 0 0 0 0 0 0 0 0 0 0 0 0 0 0 0 0 0 0 0 0 0 0 0
0 0 0 0 0 0 0 0 0 0 0 0 0 0 0 0 0 0 0 0 0 0 0 0 0 0 0 0 0 0 0 0 0 0 0 0 0 0 0 0 0 0 0 0
0 0 0 0 0 0 0 0 0 0 0 0 0 0 0 0 0 0 0 0 0 0 0 0 0 0 0 0 0 0 0 0 0 0 0 0 0 0 0 0 0 0 0 0
0 0 0 0 0 0 0 0 0 0 0 0 0 0 0 0 0 0 0 0 0 0 0 0 0 0 0 0 0 0 0 0 0 0 0 0 0 0 0 0 0 0 0 0
0 0 0 0 0 0 0 0 0 0 0 0 0 0 0 0 0 0 0 0 0 0 0 0 0 0 0 0 0 0 0 0 0 0 0 0 0 0 0 0 0 0 0 0
0 0 0 0 0 0 0 0 0 0 0 0 0 0 0 0 0 0 0 0 0 0 0 0 0 0 0 0 0 0 0 0 0 0 0 0 0 0 0 0 0 0 0 0
0 0 0 0 0 0 0 0 0 0 0 0 0 0 0 0 0 0 0 0 0 0 0 0 0 0 0 0 0 0 0 0 0 0 0 0 0 0 0 0 0 0 0 0
0 0 0 0 0 0 0 0 0 0 0 0 0 0 0 0 0 0 0 0 0 0 0 0 0 0 0 0 0 0 0 0 0 0 0 0 0 0 0 0 0 0 0 0
0 0 0 0 0 0 0 0 0 0 0 0 0 0 0 0 0 0 0 0 0 0 0 0 0 0 0 0 0 0 0 0 0 0 0 0 0 0 0 0 0 0 0 0
0 0 0 0 0 0 0 0 0 0 0 0 0 0 0 0 0 0 0 0 0 0 0 0 0 0 0 0 0 0 0 0 0 0 0 0 0 0 0 0 0 0 0 0
Height
5758 5758 5759 5760 5761 5763 5765 5767 5768 5769 5769 5769 5769 5770 5769 5769 5768 5768 5767 5767 5766 5765 5765 5764 5763 5763 5762 5761 5760 5759 5757 5755 5753 5750 5747 5744 5741 5738 5734 5731 5727 5723 5718 5713
5754 5754 5755 5756 5757 5758 5759 5760 5762 5762 5762 5761 5761 5761 5761 5761 5760 5759 5759 5758 5758 5757 5756 5755 5755 5754 5752 5751 5750 5748 5746 5743 5740 5737 5734 5731 5727 5724 5720 5716 5712 5708 5704 5699
5751 5751 5751 5752 5752 5753 5753 5754 5756 5756 5756 5754 5754 5753 5753 5752 5752 5751 5751 5750 5749 5748 5747 5746 5745 5745 5743 5741 5739 5737 5734 5731 5728 5724 5721 5717 5714 5710 5706 5702 5698 5694 5689 5684
5748 5749 5748 5750 5748 5748 5748 5748 5749 5749 5749 5747 5747 5747 5746 5745 5745 5744 5743 5742 5740 5739 5738 5737 5736 5735 5733 5731 5729 5726 5723 5720 5716 5713 5709 5705 5701 5698 5693 5689 5684 5679 5674 5669
5746 5746 5745 5745 5745 5744 5744 5743 5744 5743 5742 5742 5741 5740 5740 5739 5738 5737 5736 5735 5733 5732 5731 5729 5728 5726 5724 5721 5718 5716 5712 5709 5706 5702 5697 5693 5689 5685 5680 5675 5670 5665 5660 5655
5744 5743 5743 5743 5741 5739 5740 5739 5739 5738 5737 5736 5735 5735 5734 5733 5731 5730 5729 5727 5726 5725 5723 5721 5719 5717 5715 5712 5709 5706 5702 5698 5695 5690 5686 5682 5677 5672 5667 5662 5657 5652 5647 5642
5742 5741 5740 5739 5737 5736 5737 5736 5734 5732 5732 5731 5730 5729 5728 5726 5725 5724 5722 5721 5719 5717 5715 5713 5711 5709 5706 5703 5699 5696 5692 5688 5684 5680 5675 5671 5666 5661 5656 5651 5646 5640 5635 5630
5740 5738 5739 5735 5734 5733 5732 5730 5729 5728 5727 5725 5724 5723 5722 5721 5719 5718 5716 5715 5713 5711 5708 5706 5703 5701 5698 5694 5691 5687 5683 5679 5675 5670 5666 5661 5656 5651 5646 5641 5635 5630 5625 5620
5738 5737 5734 5732 5731 5729 5727 5726 5725 5723 5722 5721 5720 5719 5717 5716 5714 5713 5711 5709 5707 5705 5702 5699 5696 5693 5690 5686 5683 5679 5675 5671 5667 5662 5657 5652 5647 5642 5637 5632 5627 5622 5617 5612
5735 5733 5731 5729 5727 5725 5724 5722 5721 5719 5718 5717 5716 5714 5713 5712 5710 5708 5706 5704 5701 5699 5696 5693 5690 5687 5683 5680 5676 5672 5668 5664 5659 5654 5649 5644 5639 5635 5630 5625 5620 5615 5610 5606
5732 5730 5728 5726 5724 5722 5720 5719 5717 5716 5715 5713 5712 5711 5709 5708 5706 5704 5702 5699 5697 5694 5691 5687 5684 5680 5677 5673 5669 5665 5661 5657 5653 5648 5643 5638 5634 5629 5625 5621 5616 5612 5607 5602
5731 5728 5726 5723 5721 5719 5717 5716 5714 5713 5711 5710 5709 5708 5706 5705 5703 5701 5698 5695 5692 5689 5686 5682 5679 5675 5671 5667 5664 5660 5656 5652 5648 5643 5639 5635 5631 5627 5622 5618 5614 5609 5605 5601
5728 5725 5723 5720 5718 5716 5715 5713 5712 5710 5709 5708 5707 5705 5704 5702 5700 5697 5694 5691 5688 5685 5681 5678 5674 5671 5667 5663 5659 5655 5652 5648 5645 5641 5637 5634 5629 5625 5621 5617 5613 5609 5605 5601
5726 5723 5721 5718 5716 5714 5713 5711 5710 5709 5708 5706 5705 5703 5701 5699 5697 5694 5691 5688 5685 5681 5678 5674 5671 5667 5663 5659 5655 5652 5649 5646 5643 5640 5636 5633 5629 5625 5621 5617 5613 5610 5606 5603
5725 5722 5719 5717 5714 5713 5711 5710 5709 5707 5706 5705 5703 5702 5700 5697 5695 5692 5689 5685 5682 5679 5675 5671 5667 5663 5659 5656 5653 5650 5647 5645 5642 5639 5636 5632 5629 5625 5622 5618 5615 5611 5608 5606
5723 5720 5717 5715 5713 5712 5710 5709 5708 5706 5705 5704 5702 5701 5698 5696 5693 5690 5687 5683 5680 5676 5672 5668 5664 5661 5657 5653 5651 5648 5646 5643 5641 5639 5636 5633 5629 5626 5623 5620 5617 5614 5611 5609
5722 5719 5716 5714 5712 5710 5709 5708 5707 5706 5704 5703 5701 5700 5697 5695 5692 5689 5685 5682 5678 5674 5670 5665 5661 5658 5654 5651 5649 5647 5644 5643 5641 5638 5636 5633 5630 5627 5625 5622 5619 5617 5614 5612
5721 5718 5715 5713 5711 5709 5708 5707 5706 5705 5704 5703 5701 5699 5697 5694 5691 5688 5684 5680 5676 5672 5668 5664 5659 5656 5652 5650 5647 5646 5644 5642 5640 5638 5636 5634 5631 5629 5626 5624 5621 5619 5617 5615
5719 5716 5714 5712 5710 5708 5707 5706 5706 5705 5704 5702 5701 5699 5697 5694 5691 5688 5684 5680 5676 5672 5668 5663 5659 5654 5651 5648 5646 5645 5643 5641 5640 5638 5637 5635 5633 5630 5628 5626 5624 5622 5620 5618
5718 5715 5713 5710 5709 5708 5707 5706 5705 5704 5703 5702 5701 5699 5697 5694 5691 5688 5684 5680 5676 5672 5668 5664 5659 5655 5651 5649 5647 5645 5643 5641 5640 5638 5637 5635 5634 5632 5630 5628 5626 5624 5623 5621
5716 5714 5711 5709 5708 5707 5706 5705 5705 5704 5703 5702 5701 5699 5697 5694 5691 5688 5685 5681 5677 5673 5669 5664 5660 5656 5653 5650 5647 5645 5643 5641 5639 5638 5637 5636 5634 5633 5632 5630 5628 5627 5625 5624
5715 5712 5710 5708 5707 5706 5705 5705 5704 5704 5703 5702 5701 5700 5697 5695 5692 5689 5686 5682 5678 5674 5670 5666 5662 5658 5654 5651 5648 5645 5643 5641 5640 5639 5638 5637 5636 5634 5633 5632 5631 5629 5628 5627
5713 5711 5709 5707 5706 5705 5705 5704 5704 5704 5703 5702 5701 5700 5698 5696 5693 5691 5688 5684 5680 5676 5672 5668 5664 5660 5656 5653 5650 5647 5644 5643 5642 5640 5639 5638 5637 5636 5635 5634 5633 5631 5630 5629
5711 5709 5707 5706 5705 5704 5704 5703 5703 5703 5703 5702 5702 5700 5699 5697 5695 5692 5689 5686 5683 5679 5675 5672 5668 5664 5660 5657 5653 5650 5648 5646 5645 5643 5642 5640 5639 5638 5637 5636 5635 5634 5633 5632
5708 5707 5705 5704 5703 5703 5702 5702 5702 5703 5702 5702 5702 5701 5700 5698 5696 5694 5691 5688 5685 5682 5679 5675 5672 5668 5665 5661 5658 5655 5652 5650 5649 5647 5645 5644 5642 5641 5640 5639 5638 5637 5636 5635
5705 5704 5703 5702 5702 5701 5701 5701 5701 5701 5701 5701 5701 5701 5700 5699 5697 5695 5693 5690 5688 5685 5682 5679 5676 5673 5669 5665 5662 5659 5657 5655 5653 5651 5650 5648 5646 5645 5644 5643 5642 5641 5640 5640
5702 5701 5700 5699 5699 5699 5699 5699 5699 5700 5700 5700 5701 5700 5700 5699 5698 5697 5695 5692 5690 5688 5685 5683 5680 5677 5673 5670 5667 5664 5662 5660 5658 5656 5654 5653 5651 5650 5649 5648 5647 5646 5645 5645
Wind_Speed
17 20 23 24 26 28 29 30 31 32 36 39 39 39 39 39 37 36 33 33 34 35 36 36 37 38 40 42 44 46 48 50 52 53 55 56 57 58 58 59 59 58 58 57
15 17 19 21 22 25 27 29 30 31 33 35 36 37 37 37 36 34 33 33 33 33 33 32 33 35 38 39 41 42 44 47 48 50 51 51 52 53 53 53 53 53 53 53
14 16 16 18 17 19 25 27 27 28 28 30 30 31 31 31 31 31 32 33 32 33 34 34 34 35 36 38 40 41 42 44 44 43 43 45 46 47 47 48 49 50 50 51
10 13 15 14 14 14 17 21 24 25 26 25 26 26 27 27 29 30 30 29 29 30 30 31 32 33 35 36 37 38 40 41 42 42 43 44 44 44 45 46 47 48 49 50
7 10 11 13 14 14 13 16 18 19 20 22 22 24 25 26 26 27 28 29 28 27 28 29 29 30 31 33 34 35 37 38 39 41 42 43 43 44 45 45 46 46 47 47
7 8 9 11 13 15 16 16 16 17 18 18 20 20 21 22 23 24 24 24 24 25 26 26 27 28 30 32 33 34 35 36 37 38 39 40 41 41 42 42 43 43 43 43
8 8 9 10 12 14 15 15 15 15 15 16 17 18 18 18 19 19 20 20 21 23 23 24 25 27 28 30 31 32 32 33 34 35 36 37 37 37 38 39 39 39 38 38
10 10 10 11 11 12 13 14 14 14 15 15 15 16 16 16 17 17 18 19 20 21 22 23 24 25 26 27 28 28 29 30 31 32 33 34 34 34 35 35 35 33 33 32
11 11 11 11 11 12 12 12 13 13 13 13 14 14 15 16 17 18 18 19 20 21 22 23 24 24 25 25 25 26 26 27 28 29 30 30 30 31 31 31 29 28 27 27
12 11 11 11 11 11 11 11 12 12 12 12 12 13 14 14 15 15 16 17 19 20 21 21 22 23 23 23 24 24 25 25 26 27 27 27 26 26 26 25 23 23 22 22
14 13 12 12 11 11 10 10 10 10 11 11 11 12 12 12 13 14 15 16 17 18 18 19 20 20 21 21 21 22 22 22 23 23 22 22 22 21 20 20 20 19 19 19
15 15 14 12 12 11 10 10 9 8 8 9 9 9 10 11 12 13 15 15 16 16 17 18 19 19 19 20 19 19 18 18 19 19 18 17 17 17 17 17 17 16 16 15
16 16 14 13 11 10 10 9 8 7 8 8 8 9 10 12 13 14 15 15 16 16 17 17 18 18 19 18 17 16 15 15 16 16 15 15 15 15 15 15 15 14 13 12
16 15 14 12 11 10 9 8 7 7 8 8 8 10 11 12 13 14 15 15 15 15 16 17 17 18 17 16 15 14 13 13 13 14 14 13 13 14 14 14 13 13 12 12
17 16 14 12 10 9 8 8 7 7 8 8 9 10 12 12 14 15 15 15 14 15 16 17 17 17 16 15 13 12 12 11 12 12 13 12 12 13 13 12 12 12 12 12
17 16 14 12 10 9 8 7 7 7 8 8 9 10 12 13 14 15 15 15 16 17 18 17 17 16 15 14 12 11 10 10 10 11 11 11 11 12 12 12 12 12 12 12
17 16 14 12 10 9 8 7 7 7 8 8 9 10 12 13 14 15 16 17 17 17 17 17 16 15 14 12 11 10 9 9 9 9 10 10 11 11 11 11 11 11 11 11
17 16 14 12 10 8 7 7 6 7 7 8 9 10 11 13 14 15 16 17 17 17 17 17 16 14 13 11 9 8 8 8 8 8 9 9 10 10 11 11 11 11 11 11
17 16 14 12 9 8 6 6 6 6 7 7 9 10 12 14 15 16 16 17 17 17 17 17 16 15 13 11 9 8 7 7 7 7 7 8 9 9 10 10 10 10 10 10
17 16 14 11 9 7 6 5 5 5 6 7 8 10 12 14 15 16 17 17 17 17 17 17 17 16 14 12 10 9 8 7 6 6 6 7 8 8 8 9 9 9 9 9
16 15 13 11 8 7 5 5 4 4 5 6 8 10 11 13 15 16 17 18 17 18 18 18 18 17 15 13 11 10 8 7 6 6 6 6 7 7 7 8 8 8 8 8
16 15 13 10 8 6 5 4 4 3 4 6 7 9 11 13 15 16 17 18 18 18 18 19 19 18 16 14 13 11 9 8 7 6 6 5 6 6 7 7 8 8 8 8
15 14 12 10 7 5 4 4 3 3 4 5 6 8 10 12 14 15 17 18 18 18 19 20 20 19 18 17 15 13 11 10 9 8 7 7 6 7 7 8 8 8 8 8
15 13 11 9 7 5 4 3 3 3 3 3 5 7 9 11 13 15 16 18 18 18 19 20 20 19 19 18 17 16 14 13 11 11 10 9 8 8 8 8 8 8 9 9
14 13 11 9 7 5 4 4 3 3 3 2 3 5 7 9 11 13 16 17 18 18 19 19 20 19 19 18 18 18 17 15 14 13 13 12 11 10 10 10 11 11 11 11
14 12 11 9 7 6 5 4 4 4 4 3 2 3 5 7 9 12 14 16 17 17 17 18 18 18 19 19 19 18 17 16 16 15 15 14 14 13 13 13 13 13 13 13
14 12 11 9 8 7 6 6 5 5 5 5 4 3 3 5 7 9 12 14 15 16 16 15 16 17 18 19 19 19 18 17 16 16 15 15 15 15 15 15 14 15 15 15
Wind_Direction
224 226 228 232 234 234 236 238 240 241 244 248 252 256 260 264 268 271 269 269 269 269 267 266 265 265 266 265 267 268 270 272 273 275 276 276 277 278 280 280 282 283 284 285
248 247 248 246 243 243 242 242 242 245 249 252 254 258 261 265 267 269 273 276 277 275 274 272 272 271 271 271 271 272 273 274 275 276 276 276 279 280 281 282 284 286 286 287
253 262 264 259 258 254 247 245 248 253 255 255 260 264 268 272 274 279 283 284 285 283 285 286 284 282 281 277 275 275 277 278 279 281 283 284 287 288 288 289 291 290 289 289
263 267 267 271 275 270 263 255 258 264 266 268 273 276 279 283 286 288 287 287 290 292 291 290 288 286 285 285 284 285 286 285 286 286 288 289 290 291 291 291 291 290 289 289
285 282 281 280 285 286 281 277 276 278 280 280 281 285 288 291 291 288 288 289 292 292 290 289 288 286 287 288 288 288 288 288 288 290 292 293 294 294 294 292 291 290 290 289
313 303 298 295 291 293 293 293 289 288 289 288 289 291 291 292 291 290 292 292 291 292 291 289 288 289 288 289 290 291 292 293 295 295 295 296 296 296 295 294 293 292 290 290
327 316 308 300 296 295 295 296 294 294 293 293 295 296 296 296 296 295 295 293 293 294 294 293 293 293 293 294 295 296 297 297 297 298 298 299 299 299 298 297 295 294 293 292
334 327 320 311 304 301 300 298 297 297 297 298 300 300 299 299 298 296 295 296 297 298 298 298 299 299 299 299 299 300 301 301 301 302 302 302 301 301 301 300 299 297 297 296
337 331 323 317 311 305 302 300 299 300 301 301 300 300 300 299 298 296 297 298 300 301 303 303 304 304 304 304 305 305 306 306 306 307 307 306 305 305 305 305 304 303 303 302
342 334 326 321 316 311 307 305 305 303 302 300 301 301 301 302 302 302 304 305 306 306 307 307 308 307 307 308 309 309 310 311 311 312 312 311 311 311 311 312 313 314 314 312
345 339 333 327 323 319 315 315 312 306 304 303 304 306 307 308 311 312 311 310 311 312 313 314 315 314 314 313 313 315 316 317 318 320 321 320 320 321 322 322 322 324 325 325
346 342 338 334 331 327 324 324 323 320 319 319 318 321 323 323 322 322 321 319 319 320 321 321 321 322 322 321 320 322 324 326 328 329 329 329 330 331 332 333 335 336 338 340
348 346 342 338 337 335 330 331 333 335 336 334 333 333 332 330 330 329 329 328 327 328 329 329 329 329 327 326 325 327 330 333 336 340 341 342 342 343 345 347 351 355 358 3
350 348 345 341 339 339 337 337 338 338 340 339 339 339 338 338 337 336 335 335 335 335 335 334 333 332 332 332 331 332 335 339 343 347 349 349 351 353 355 360 6 11 16 24
351 349 346 344 342 342 340 340 340 341 342 344 344 343 343 343 343 341 340 339 338 338 337 337 336 336 336 337 336 336 338 343 347 352 354 356 359 3 6 11 17 23 28 35
352 350 348 346 344 342 341 341 344 346 348 348 347 347 348 347 346 346 346 344 341 339 338 338 337 337 337 337 338 338 340 344 351 356 359 4 6 10 13 18 23 28 34 41
352 351 349 348 346 343 343 343 347 352 352 352 352 353 352 351 351 351 350 349 346 344 343 342 341 340 340 341 343 343 344 348 355 1 6 11 13 17 21 26 31 36 41 47
351 350 348 348 346 343 343 348 351 354 356 357 358 357 356 357 357 356 355 354 354 353 352 351 349 348 347 348 350 350 351 353 358 2 8 14 19 22 26 30 36 40 45 50
350 349 348 347 346 346 345 347 353 356 359 2 2 2 2 3 3 3 2 2 2 2 3 2 1 360 359 0 0 359 356 354 356 1 9 16 21 25 29 33 37 41 46 51
348 349 349 348 347 347 346 346 350 355 0 4 4 4 6 8 9 10 9 9 9 8 8 8 8 8 9 10 10 8 7 5 3 5 11 18 21 26 31 36 40 43 48 54
346 347 348 348 346 345 345 346 349 356 360 3 6 8 10 12 14 15 15 13 11 11 13 13 13 13 14 15 14 12 13 13 12 13 16 21 25 31 37 40 42 45 51 59
342 343 345 345 342 339 338 341 343 350 357 2 6 10 13 15 17 18 18 17 18 19 20 18 17 18 20 21 20 19 21 25 29 28 29 33 38 43 46 47 47 50 56 65
337 338 340 340 337 331 327 329 329 335 348 359 8 13 16 19 20 21 20 20 22 25 26 24 23 25 27 29 30 33 36 40 43 43 46 52 56 56 56 54 55 58 64 71
331 331 333 334 329 321 314 312 306 310 326 347 4 12 18 22 22 22 23 24 26 28 29 28 28 30 33 36 38 42 47 51 53 53 55 60 64 65 63 60 62 67 71 76
324 325 326 326 321 312 301 292 285 283 292 314 352 9 18 22 23 23 25 27 29 30 30 29 28 30 34 39 44 48 52 54 56 57 59 61 65 67 68 69 71 75 78 81
316 316 316 315 310 302 288 276 268 263 261 265 300 350 10 18 21 22 24 26 28 28 28 28 30 33 38 42 46 49 51 53 55 58 62 64 67 70 73 75 77 79 82 84
307 308 307 304 297 287 274 264 256 251 249 248 255 288 338 3 15 21 23 26 28 29 29 31 33 38 42 44 46 47 49 52 55 59 62 65 68 71 74 76 79 80 82 84